GW3215 Weather Reports


time (UTC)temp
F
wind
direction
speed
knots
gust
knots
rain 1hr
in
rain 24hr
in
rain mn
in
humidity
%
barometer
mb
20260506014504 69 192 0.0 0.9 0.00 0.00 0.00 63 1013.5
20260506013008 70 192 0.0 0.9 0.00 0.00 0.00 63 1013.6
20260506011510 70 192 0.0 0.9 0.00 0.00 0.00 62 1013.5
20260506010011 71 192 0.0 0.0 0.00 0.00 0.00 58 1013.5
20260506004512 72 192 0.0 0.9 0.00 0.00 0.00 56 1013.4
20260506003005 73 205 0.0 1.7 0.00 0.00 0.00 52 1013.4
20260506001506 73 209 0.0 2.6 0.00 0.00 0.00 51 1013.4
20260506000018 74 118 0.0 3.5 0.00 0.00 0.00 50 1013.4
20260505234512 75 182 0.9 4.3 0.00 0.00 0.00 49 1013.4
20260505233018 76 157 0.0 2.6 0.00 0.00 0.00 47 1013.1
20260505231506 77 212 0.0 7.0 0.00 0.00 0.00 45 1013.2
20260505230032 78 147 0.9 5.2 0.00 0.00 0.00 43 1013.2
20260505224516 78 227 2.6 7.8 0.00 0.00 0.00 43 1013.3
20260505223016 78 241 1.7 8.7 0.00 0.00 0.00 41 1013.1
20260505221516 79 338 0.9 8.7 0.00 0.00 0.00 41 1013.3
20260505220007 79 102 1.7 8.7 0.00 0.00 0.00 41 1013.3
20260505214514 80 331 1.7 11.3 0.00 0.00 0.00 40 1013.4
20260505213015 80 163 1.7 7.0 0.00 0.00 0.00 42 1013.5
20260505211518 80 126 2.6 7.0 0.00 0.00 0.00 40 1013.6
20260505210020 80 210 3.5 11.3 0.00 0.00 0.00 39 1013.6
20260505204522 80 186 1.7 5.2 0.00 0.00 0.00 42 1013.7
20260505203015 79 132 2.6 7.0 0.00 0.00 0.00 42 1014.0
20260505201521 79 168 1.7 6.1 0.00 0.00 0.00 39 1014.0
20260505200030 79 63 0.9 7.8 0.00 0.00 0.00 42 1014.3
20260505194523 81 314 0.9 7.8 0.00 0.00 0.00 37 1014.5
20260505193011 81 199 3.5 11.3 0.00 0.00 0.00 37 1015.0
20260505191515 80 234 1.7 13.0 0.00 0.00 0.00 38 1015.1
20260505190005 81 250 1.7 6.1 0.00 0.00 0.00 38 1015.3
20260505184504 80 265 1.7 9.6 0.00 0.00 0.00 40 1015.3
20260505183012 80 147 0.9 6.1 0.00 0.00 0.00 38 1015.4
20260505181516 79 214 1.7 8.7 0.00 0.00 0.00 37 1015.7
20260505180019 80 299 1.7 9.6 0.00 0.00 0.00 40 1016.1
20260505174508 80 238 1.7 8.7 0.00 0.00 0.00 37 1016.4
20260505173025 79 248 1.7 8.7 0.00 0.00 0.00 41 1016.3
20260505171518 80 103 1.7 7.0 0.00 0.00 0.00 41 1016.3
20260505170025 78 211 1.7 7.0 0.00 0.00 0.00 38 1016.2
20260505164543 78 249 2.6 7.8 0.00 0.00 0.00 41 1016.3
20260505163012 77 248 1.7 7.8 0.00 0.00 0.00 39 1016.7
20260505161510 76 201 1.7 8.7 0.00 0.00 0.00 42 1016.6
20260505153031 74 263 0.9 7.0 0.00 0.00 0.00 54 1017.0
20260505151508 73 244 1.7 4.3 0.00 0.00 0.00 57 1017.3
20260505124518 56 217 1.7 6.1 0.00 0.00 0.00 92 1016.4
20260505123019 54 159 0.9 3.5 0.00 0.00 0.00 92 1016.4
20260505121522 53 152 0.0 2.6 0.00 0.00 0.00 92 1016.4
20260505120026 52 214 0.0 0.0 0.00 0.00 0.00 91 1016.3
20260505114533 52 214 0.0 0.0 0.00 0.00 0.00 90 1015.9
20260505113028 51 214 0.0 0.9 0.00 0.00 0.00 90 1015.9
20260505111520 51 214 0.0 1.7 0.00 0.00 0.00 89 1015.9
20260505101503 51 226 0.0 4.3 0.00 0.00 0.00 89 1015.6
20260505100004 51 200 0.9 4.3 0.00 0.00 0.00 89 1015.5
20260505094505 51 161 0.0 1.7 0.00 0.00 0.00 87 1015.5
20260505093008 51 219 0.0 0.9 0.00 0.00 0.00 85 1015.5
20260505091512 52 233 0.0 0.0 0.00 0.00 0.00 85 1015.4
20260505090003 52 233 0.0 0.9 0.00 0.00 0.00 84 1015.3
20260505084504 53 233 0.0 0.9 0.00 0.00 0.00 83 1015.3
20260505083006 53 233 0.0 0.9 0.00 0.00 0.00 82 1015.2
20260505081512 54 229 0.0 3.5 0.00 0.00 0.00 82 1015.2
20260505080017 54 228 0.0 6.1 0.00 0.00 0.00 82 1015.2
20260505074503 53 182 0.9 2.6 0.00 0.00 0.00 82 1015.0
20260505073005 53 205 0.9 4.3 0.00 0.00 0.00 83 1015.0
20260505071512 52 229 0.9 3.5 0.00 0.00 0.00 84 1015.0
20260505070012 51 238 0.0 3.5 0.00 0.00 0.00 87 1014.9
20260505064518 50 190 0.9 4.3 0.00 0.00 0.00 88 1014.9
20260505063026 50 192 0.0 0.9 0.00 0.00 0.00 88 1014.9
20260505061522 50 192 0.0 0.9 0.00 0.00 0.00 87 1015.0
20260505060008 51 192 0.0 0.9 0.00 0.00 0.00 86 1015.0
20260505054522 51 192 0.0 0.9 0.00 0.00 0.00 85 1015.2
20260505053019 51 192 0.0 0.0 0.00 0.00 0.00 83 1015.1
20260505051529 52 192 0.0 0.0 0.00 0.00 0.00 84 1015.3
20260505041521 54 192 0.0 0.0 0.00 0.00 0.00 81 1015.4
20260505040024 54 192 0.0 0.0 0.00 0.00 0.00 80 1015.5
20260505034507 55 192 0.0 0.0 0.00 0.00 0.00 80 1015.5
20260505033027 55 192 0.0 0.0 0.00 0.00 0.00 81 1015.5
20260505031520 55 192 0.0 0.0 0.00 0.00 0.00 78 1015.5
20260505030024 56 192 0.0 0.0 0.00 0.00 0.00 77 1015.5
20260505024549 57 192 0.0 0.0 0.00 0.00 0.00 77 1015.6
20260505023035 57 192 0.0 0.0 0.00 0.00 0.00 77 1015.4
20260505021529 58 192 0.0 0.0 0.00 0.00 0.00 76 1015.4
20260505020020 59 192 0.0 0.0 0.00 0.00 0.00 74 1015.3